QPF
0.02 0.01 0.00 0.00 0.00 0.01 0.01 0.02 0.02 0.02 0.03 0.04 0.06 0.08 0.13 0.14 0.13 0.12 0.12 0.07 0.07 0.08 0.11 0.12 0.11 0.10 0.09 0.08 0.08 0.11 0.11 0.10 0.08 0.09 0.09 0.08 0.07 0.07 0.06 0.05 0.06 0.07 0.07
0.00 0.00 0.00 0.00 0.00 0.01 0.01 0.02 0.03 0.03 0.02 0.04 0.05 0.06 0.08 0.08 0.09 0.11 0.11 0.08 0.07 0.07 0.08 0.10 0.10 0.10 0.10 0.10 0.10 0.11 0.10 0.09 0.09 0.09 0.09 0.08 0.08 0.08 0.06 0.05 0.06 0.07 0.08
0.00 0.01 0.01 0.01 0.01 0.01 0.02 0.04 0.04 0.03 0.04 0.04 0.03 0.03 0.05 0.06 0.06 0.09 0.10 0.08 0.06 0.05 0.05 0.06 0.07 0.09 0.09 0.10 0.09 0.09 0.09 0.10 0.09 0.08 0.09 0.10 0.11 0.11 0.08 0.08 0.07 0.08 0.10
0.00 0.00 0.00 0.00 0.00 0.01 0.02 0.03 0.04 0.04 0.04 0.04 0.04 0.04 0.04 0.06 0.07 0.08 0.07 0.06 0.06 0.04 0.03 0.03 0.04 0.06 0.07 0.08 0.06 0.06 0.06 0.08 0.09 0.09 0.08 0.11 0.12 0.11 0.08 0.09 0.08 0.09 0.12
0.00 0.00 0.00 0.00 0.00 0.01 0.01 0.02 0.03 0.04 0.04 0.04 0.05 0.05 0.07 0.07 0.07 0.08 0.08 0.07 0.06 0.05 0.03 0.03 0.04 0.04 0.06 0.06 0.05 0.06 0.06 0.06 0.07 0.09 0.11 0.12 0.12 0.11 0.11 0.11 0.10 0.10 0.09
0.00 0.00 0.00 0.00 0.01 0.01 0.00 0.01 0.02 0.03 0.03 0.04 0.04 0.05 0.07 0.07 0.07 0.08 0.07 0.06 0.06 0.05 0.03 0.03 0.03 0.04 0.05 0.05 0.04 0.05 0.05 0.06 0.07 0.07 0.08 0.10 0.12 0.13 0.13 0.14 0.13 0.11 0.11
0.00 0.00 0.00 0.01 0.01 0.01 0.01 0.02 0.02 0.03 0.03 0.04 0.05 0.05 0.06 0.05 0.06 0.06 0.06 0.06 0.05 0.05 0.04 0.03 0.03 0.03 0.04 0.05 0.06 0.06 0.06 0.06 0.07 0.06 0.07 0.08 0.08 0.09 0.10 0.11 0.10 0.09 0.08
0.01 0.01 0.01 0.01 0.01 0.01 0.01 0.02 0.02 0.03 0.03 0.04 0.04 0.05 0.06 0.05 0.07 0.07 0.04 0.04 0.03 0.03 0.03 0.03 0.03 0.04 0.04 0.04 0.06 0.06 0.06 0.07 0.07 0.05 0.06 0.06 0.05 0.06 0.07 0.08 0.08 0.08 0.07
0.01 0.01 0.01 0.01 0.01 0.01 0.01 0.01 0.02 0.02 0.03 0.04 0.04 0.04 0.05 0.05 0.06 0.06 0.04 0.03 0.04 0.04 0.05 0.04 0.04 0.05 0.05 0.04 0.05 0.05 0.06 0.07 0.07 0.05 0.05 0.05 0.05 0.06 0.06 0.06 0.07 0.08 0.07
0.02 0.01 0.01 0.01 0.01 0.00 0.01 0.01 0.01 0.02 0.03 0.04 0.04 0.04 0.05 0.04 0.05 0.05 0.05 0.04 0.04 0.04 0.04 0.04 0.04 0.04 0.04 0.04 0.05 0.06 0.06 0.07 0.06 0.06 0.07 0.06 0.04 0.05 0.04 0.04 0.06 0.07 0.07
0.01 0.01 0.01 0.00 0.00 0.00 0.01 0.02 0.03 0.02 0.03 0.03 0.04 0.04 0.04 0.04 0.04 0.04 0.05 0.04 0.03 0.04 0.03 0.03 0.04 0.04 0.03 0.05 0.05 0.04 0.04 0.04 0.05 0.06 0.07 0.06 0.05 0.05 0.04 0.04 0.04 0.05 0.05
0.01 0.01 0.01 0.01 0.01 0.01 0.01 0.01 0.01 0.02 0.03 0.03 0.03 0.02 0.02 0.03 0.03 0.03 0.04 0.04 0.03 0.03 0.04 0.03 0.03 0.02 0.03 0.04 0.04 0.03 0.05 0.04 0.04 0.04 0.06 0.04 0.05 0.06 0.05 0.05 0.05 0.05 0.05
0.00 0.00 0.01 0.02 0.02 0.03 0.02 0.01 0.01 0.01 0.01 0.02 0.02 0.01 0.01 0.01 0.02 0.03 0.04 0.04 0.03 0.04 0.04 0.05 0.04 0.02 0.02 0.03 0.03 0.04 0.03 0.03 0.04 0.04 0.05 0.05 0.06 0.05 0.06 0.06 0.06 0.05 0.05
0.00 0.00 0.00 0.01 0.02 0.02 0.02 0.03 0.02 0.01 0.01 0.02 0.03 0.03 0.03 0.04 0.04 0.04 0.03 0.03 0.04 0.04 0.04 0.05 0.04 0.04 0.03 0.02 0.03 0.04 0.03 0.04 0.05 0.05 0.06 0.07 0.07 0.07 0.07 0.06 0.06 0.05 0.06
0.01 0.01 0.01 0.01 0.02 0.01 0.02 0.02 0.03 0.02 0.03 0.03 0.04 0.04 0.04 0.04 0.04 0.04 0.03 0.04 0.04 0.03 0.04 0.04 0.03 0.03 0.03 0.02 0.03 0.04 0.04 0.04 0.05 0.06 0.07 0.07 0.07 0.09 0.08 0.06 0.07 0.07 0.07
0.01 0.01 0.01 0.01 0.01 0.01 0.01 0.02 0.03 0.03 0.02 0.02 0.02 0.02 0.02 0.03 0.03 0.03 0.03 0.03 0.03 0.03 0.04 0.05 0.05 0.05 0.02 0.02 0.02 0.03 0.05 0.05 0.06 0.07 0.06 0.06 0.05 0.07 0.08 0.08 0.08 0.08 0.06
0.00 0.00 0.00 0.00 0.01 0.01 0.01 0.01 0.01 0.02 0.02 0.02 0.03 0.02 0.01 0.02 0.03 0.03 0.04 0.04 0.04 0.04 0.04 0.05 0.06 0.06 0.05 0.04 0.02 0.02 0.04 0.06 0.06 0.07 0.07 0.05 0.05 0.06 0.07 0.07 0.06 0.06 0.06
0.00 0.00 0.00 0.01 0.01 0.01 0.01 0.01 0.01 0.01 0.01 0.01 0.02 0.02 0.02 0.02 0.03 0.04 0.05 0.04 0.04 0.05 0.05 0.04 0.05 0.05 0.04 0.03 0.03 0.02 0.03 0.06 0.05 0.05 0.06 0.07 0.08 0.07 0.07 0.07 0.07 0.06 0.06
0.00 0.00 0.00 0.01 0.02 0.02 0.02 0.02 0.01 0.01 0.01 0.01 0.00 0.01 0.01 0.02 0.02 0.03 0.03 0.04 0.04 0.04 0.04 0.04 0.05 0.05 0.04 0.04 0.03 0.02 0.02 0.03 0.03 0.03 0.05 0.06 0.07 0.08 0.08 0.07 0.08 0.08 0.07
0.00 0.00 0.01 0.01 0.01 0.01 0.02 0.02 0.02 0.02 0.02 0.02 0.01 0.01 0.01 0.01 0.02 0.03 0.03 0.04 0.05 0.05 0.04 0.05 0.05 0.05 0.04 0.04 0.02 0.02 0.03 0.04 0.04 0.04 0.05 0.05 0.06 0.06 0.06 0.06 0.07 0.08 0.09
0.00 0.01 0.01 0.01 0.01 0.01 0.02 0.02 0.03 0.03 0.04 0.04 0.04 0.03 0.02 0.02 0.02 0.02 0.03 0.03 0.04 0.05 0.04 0.05 0.05 0.05 0.05 0.05 0.04 0.04 0.03 0.04 0.06 0.05 0.05 0.04 0.03 0.03 0.02 0.03 0.04 0.05 0.06
0.01 0.01 0.00 0.01 0.01 0.01 0.01 0.02 0.03 0.04 0.05 0.05 0.05 0.05 0.03 0.02 0.01 0.02 0.03 0.03 0.04 0.04 0.05 0.05 0.03 0.04 0.05 0.06 0.05 0.05 0.04 0.05 0.06 0.05 0.05 0.04 0.03 0.03 0.03 0.03 0.03 0.03 0.04
0.01 0.01 0.01 0.01 0.01 0.01 0.01 0.02 0.03 0.03 0.03 0.03 0.05 0.05 0.04 0.03 0.03 0.02 0.03 0.04 0.05 0.04 0.04 0.05 0.04 0.04 0.05 0.06 0.05 0.04 0.05 0.07 0.07 0.07 0.07 0.07 0.07 0.06 0.05 0.05 0.04 0.04 0.04
0.01 0.01 0.01 0.01 0.01 0.01 0.02 0.02 0.02 0.03 0.02 0.02 0.03 0.03 0.03 0.03 0.03 0.03 0.03 0.03 0.04 0.04 0.04 0.04 0.04 0.05 0.07 0.06 0.05 0.04 0.03 0.04 0.05 0.05 0.06 0.07 0.08 0.08 0.07 0.06 0.05 0.03 0.03
0.01 0.01 0.01 0.01 0.01 0.01 0.02 0.03 0.03 0.03 0.03 0.03 0.03 0.03 0.02 0.02 0.03 0.03 0.02 0.02 0.03 0.03 0.02 0.03 0.04 0.06 0.06 0.06 0.07 0.05 0.04 0.03 0.03 0.04 0.05 0.06 0.06 0.06 0.05 0.06 0.07 0.06 0.06
0.01 0.01 0.01 0.01 0.01 0.01 0.02 0.02 0.02 0.03 0.03 0.03 0.03 0.02 0.02 0.02 0.02 0.03 0.03 0.03 0.03 0.02 0.02 0.03 0.04 0.04 0.04 0.05 0.05 0.05 0.06 0.06 0.06 0.06 0.05 0.06 0.06 0.06 0.07 0.08 0.09 0.08 0.07
MSLP
1004.36 1004.77 1005.21 1005.68 1006.15 1006.64 1007.16 1007.72 1008.31 1008.92 1009.51 1010.05 1010.48 1010.79 1010.96 1011.01 1010.98 1010.91 1010.86 1010.88 1011.00 1011.22 1011.53 1011.90 1012.30 1012.67 1013.01 1013.30 1013.53 1013.72 1013.87 1014.00 1014.09 1014.13 1014.10 1013.99 1013.76 1013.43 1013.01 1012.54 1012.07 1011.66 1011.35
1003.62 1004.04 1004.50 1004.98 1005.46 1005.95 1006.48 1007.06 1007.70 1008.36 1009.02 1009.63 1010.13 1010.49 1010.68 1010.72 1010.65 1010.53 1010.42 1010.38 1010.45 1010.64 1010.95 1011.33 1011.75 1012.16 1012.53 1012.84 1013.10 1013.31 1013.48 1013.63 1013.76 1013.85 1013.88 1013.82 1013.65 1013.37 1012.97 1012.49 1011.99 1011.52 1011.15
1002.87 1003.31 1003.79 1004.29 1004.78 1005.28 1005.81 1006.40 1007.06 1007.76 1008.48 1009.15 1009.71 1010.11 1010.33 1010.38 1010.29 1010.13 1009.96 1009.86 1009.87 1010.01 1010.28 1010.64 1011.05 1011.45 1011.83 1012.15 1012.42 1012.64 1012.84 1013.03 1013.21 1013.36 1013.46 1013.49 1013.40 1013.19 1012.85 1012.41 1011.91 1011.42 1011.00
1002.07 1002.54 1003.06 1003.58 1004.09 1004.60 1005.14 1005.73 1006.41 1007.14 1007.89 1008.60 1009.21 1009.66 1009.92 1009.98 1009.89 1009.71 1009.50 1009.34 1009.28 1009.36 1009.56 1009.86 1010.22 1010.59 1010.93 1011.24 1011.50 1011.73 1011.95 1012.17 1012.40 1012.63 1012.82 1012.94 1012.95 1012.83 1012.57 1012.20 1011.75 1011.28 1010.84
1001.23 1001.73 1002.28 1002.84 1003.38 1003.91 1004.46 1005.07 1005.75 1006.49 1007.26 1008.00 1008.65 1009.14 1009.44 1009.54 1009.47 1009.27 1009.04 1008.83 1008.71 1008.70 1008.81 1009.03 1009.31 1009.61 1009.91 1010.17 1010.41 1010.64 1010.87 1011.12 1011.40 1011.68 1011.95 1012.16 1012.27 1012.26 1012.10 1011.82 1011.44 1011.01 1010.60
1000.38 1000.90 1001.50 1002.10 1002.68 1003.24 1003.81 1004.42 1005.10 1005.84 1006.62 1007.38 1008.05 1008.58 1008.92 1009.06 1009.01 1008.84 1008.59 1008.35 1008.17 1008.09 1008.11 1008.23 1008.41 1008.62 1008.84 1009.05 1009.25 1009.45 1009.68 1009.95 1010.25 1010.57 1010.90 1011.18 1011.38 1011.46 1011.41 1011.23 1010.94 1010.59 1010.23
999.57 1000.12 1000.75 1001.40 1002.02 1002.61 1003.20 1003.82 1004.49 1005.23 1006.00 1006.76 1007.44 1008.00 1008.38 1008.56 1008.56 1008.41 1008.18 1007.93 1007.71 1007.56 1007.49 1007.51 1007.59 1007.71 1007.84 1007.98 1008.12 1008.29 1008.49 1008.74 1009.04 1009.38 1009.74 1010.06 1010.32 1010.49 1010.53 1010.45 1010.27 1010.02 1009.74
998.92 999.49 1000.15 1000.83 1001.48 1002.10 1002.71 1003.32 1003.98 1004.70 1005.44 1006.18 1006.86 1007.43 1007.84 1008.07 1008.12 1008.02 1007.82 1007.58 1007.34 1007.15 1007.02 1006.95 1006.94 1006.96 1007.00 1007.05 1007.13 1007.23 1007.38 1007.59 1007.87 1008.19 1008.53 1008.87 1009.16 1009.38 1009.50 1009.52 1009.45 1009.31 1009.15
998.51 999.08 999.76 1000.46 1001.14 1001.77 1002.38 1002.99 1003.62 1004.29 1005.00 1005.70 1006.36 1006.93 1007.36 1007.63 1007.73 1007.69 1007.55 1007.34 1007.11 1006.90 1006.72 1006.59 1006.49 1006.41 1006.36 1006.32 1006.31 1006.34 1006.42 1006.57 1006.78 1007.04 1007.35 1007.66 1007.96 1008.21 1008.39 1008.50 1008.54 1008.53 1008.49
998.40 998.97 999.64 1000.35 1001.03 1001.67 1002.27 1002.86 1003.45 1004.08 1004.72 1005.38 1006.00 1006.54 1006.98 1007.28 1007.44 1007.46 1007.38 1007.22 1007.02 1006.82 1006.61 1006.42 1006.25 1006.09 1005.94 1005.81 1005.70 1005.63 1005.61 1005.67 1005.79 1005.98 1006.22 1006.49 1006.77 1007.03 1007.26 1007.45 1007.60 1007.71 1007.80
998.59 999.15 999.82 1000.51 1001.19 1001.81 1002.40 1002.95 1003.50 1004.07 1004.65 1005.24 1005.80 1006.31 1006.74 1007.06 1007.25 1007.34 1007.32 1007.22 1007.07 1006.88 1006.67 1006.44 1006.20 1005.96 1005.71 1005.47 1005.25 1005.06 1004.94 1004.88 1004.89 1004.99 1005.14 1005.36 1005.60 1005.87 1006.14 1006.40 1006.64 1006.87 1007.09
999.00 999.56 1000.21 1000.90 1001.56 1002.17 1002.73 1003.25 1003.76 1004.27 1004.78 1005.29 1005.79 1006.26 1006.66 1006.98 1007.21 1007.34 1007.38 1007.34 1007.23 1007.06 1006.84 1006.58 1006.27 1005.94 1005.59 1005.23 1004.88 1004.57 1004.31 1004.13 1004.03 1004.02 1004.09 1004.24 1004.45 1004.71 1005.01 1005.33 1005.67 1006.01 1006.35
999.52 1000.09 1000.74 1001.41 1002.06 1002.66 1003.21 1003.71 1004.18 1004.63 1005.08 1005.53 1005.96 1006.37 1006.73 1007.04 1007.28 1007.44 1007.53 1007.53 1007.46 1007.31 1007.08 1006.77 1006.40 1005.97 1005.50 1005.01 1004.53 1004.08 1003.69 1003.38 1003.16 1003.05 1003.04 1003.13 1003.31 1003.56 1003.88 1004.26 1004.67 1005.10 1005.54
1000.03 1000.62 1001.28 1001.95 1002.60 1003.20 1003.75 1004.25 1004.70 1005.11 1005.51 1005.90 1006.26 1006.61 1006.93 1007.22 1007.45 1007.63 1007.74 1007.77 1007.72 1007.57 1007.31 1006.96 1006.51 1005.98 1005.38 1004.76 1004.14 1003.55 1003.02 1002.59 1002.26 1002.05 1001.97 1002.01 1002.16 1002.41 1002.76 1003.17 1003.64 1004.15 1004.67
1000.44 1001.07 1001.74 1002.43 1003.10 1003.72 1004.29 1004.79 1005.24 1005.64 1006.00 1006.34 1006.65 1006.94 1007.21 1007.46 1007.68 1007.86 1007.98 1008.02 1007.97 1007.81 1007.52 1007.11 1006.57 1005.94 1005.23 1004.47 1003.71 1002.99 1002.33 1001.78 1001.36 1001.07 1000.93 1000.93 1001.06 1001.31 1001.67 1002.12 1002.63 1003.19 1003.76
1000.69 1001.36 1002.08 1002.80 1003.50 1004.16 1004.76 1005.29 1005.75 1006.15 1006.49 1006.78 1007.05 1007.29 1007.52 1007.73 1007.93 1008.09 1008.21 1008.25 1008.19 1008.01 1007.69 1007.22 1006.61 1005.88 1005.06 1004.18 1003.30 1002.45 1001.69 1001.04 1000.54 1000.19 1000.00 999.97 1000.09 1000.35 1000.72 1001.18 1001.72 1002.31 1002.91
1000.81 1001.53 1002.29 1003.05 1003.80 1004.50 1005.14 1005.70 1006.18 1006.59 1006.92 1007.19 1007.42 1007.62 1007.81 1008.00 1008.17 1008.32 1008.42 1008.45 1008.39 1008.19 1007.84 1007.33 1006.66 1005.85 1004.94 1003.98 1003.00 1002.06 1001.22 1000.51 999.95 999.55 999.34 999.29 999.40 999.65 1000.03 1000.50 1001.04 1001.63 1002.25
1000.85 1001.62 1002.42 1003.23 1004.01 1004.75 1005.43 1006.03 1006.53 1006.94 1007.26 1007.52 1007.73 1007.90 1008.06 1008.22 1008.38 1008.52 1008.62 1008.65 1008.58 1008.38 1008.02 1007.49 1006.79 1005.94 1004.99 1003.97 1002.94 1001.96 1001.07 1000.32 999.73 999.32 999.09 999.03 999.14 999.39 999.76 1000.22 1000.76 1001.33 1001.93
1000.92 1001.73 1002.56 1003.40 1004.21 1004.98 1005.67 1006.28 1006.79 1007.20 1007.52 1007.77 1007.96 1008.12 1008.27 1008.42 1008.57 1008.71 1008.82 1008.87 1008.82 1008.63 1008.29 1007.77 1007.08 1006.23 1005.28 1004.26 1003.23 1002.24 1001.35 1000.59 1000.01 999.60 999.37 999.31 999.42 999.66 1000.02 1000.46 1000.97 1001.52 1002.08
1001.10 1001.93 1002.78 1003.62 1004.44 1005.21 1005.90 1006.50 1007.00 1007.40 1007.71 1007.95 1008.13 1008.28 1008.43 1008.59 1008.75 1008.91 1009.05 1009.13 1009.11 1008.97 1008.67 1008.20 1007.55 1006.76 1005.86 1004.89 1003.90 1002.95 1002.10 1001.38 1000.82 1000.43 1000.21 1000.17 1000.27 1000.50 1000.84 1001.25 1001.72 1002.23 1002.74
1001.43 1002.27 1003.11 1003.94 1004.74 1005.47 1006.13 1006.70 1007.18 1007.55 1007.85 1008.07 1008.26 1008.42 1008.58 1008.76 1008.95 1009.14 1009.32 1009.44 1009.48 1009.40 1009.17 1008.78 1008.22 1007.52 1006.71 1005.83 1004.93 1004.07 1003.28 1002.62 1002.11 1001.76 1001.56 1001.53 1001.62 1001.84 1002.15 1002.53 1002.95 1003.40 1003.86
1001.91 1002.74 1003.56 1004.35 1005.10 1005.78 1006.39 1006.91 1007.34 1007.68 1007.96 1008.18 1008.37 1008.55 1008.73 1008.94 1009.17 1009.41 1009.63 1009.81 1009.91 1009.90 1009.76 1009.46 1009.01 1008.43 1007.74 1006.98 1006.21 1005.46 1004.77 1004.19 1003.74 1003.44 1003.27 1003.24 1003.33 1003.52 1003.80 1004.14 1004.51 1004.90 1005.29
1002.48 1003.29 1004.07 1004.81 1005.49 1006.11 1006.65 1007.11 1007.49 1007.80 1008.06 1008.27 1008.48 1008.68 1008.90 1009.14 1009.41 1009.69 1009.96 1010.20 1010.36 1010.42 1010.37 1010.17 1009.84 1009.39 1008.84 1008.22 1007.58 1006.95 1006.38 1005.89 1005.51 1005.25 1005.11 1005.08 1005.16 1005.33 1005.57 1005.85 1006.17 1006.51 1006.84
1003.07 1003.84 1004.58 1005.27 1005.89 1006.43 1006.91 1007.30 1007.64 1007.92 1008.16 1008.38 1008.59 1008.82 1009.07 1009.35 1009.66 1009.98 1010.28 1010.56 1010.77 1010.90 1010.92 1010.82 1010.60 1010.27 1009.85 1009.38 1008.87 1008.37 1007.91 1007.51 1007.20 1006.98 1006.86 1006.83 1006.89 1007.03 1007.22 1007.46 1007.73 1008.00 1008.28
1003.59 1004.34 1005.04 1005.67 1006.23 1006.72 1007.13 1007.48 1007.77 1008.03 1008.26 1008.48 1008.72 1008.97 1009.25 1009.55 1009.88 1010.22 1010.55 1010.85 1011.09 1011.26 1011.34 1011.31 1011.19 1010.97 1010.67 1010.32 1009.94 1009.56 1009.20 1008.88 1008.63 1008.45 1008.34 1008.31 1008.35 1008.45 1008.60 1008.79 1009.00 1009.23 1009.46
1003.99 1004.72 1005.39 1005.99 1006.51 1006.95 1007.32 1007.63 1007.90 1008.13 1008.36 1008.59 1008.84 1009.11 1009.40 1009.73 1010.06 1010.40 1010.73 1011.03 1011.29 1011.47 1011.59 1011.62 1011.56 1011.43 1011.23 1010.98 1010.71 1010.42 1010.15 1009.91 1009.70 1009.55 1009.46 1009.42 1009.44 1009.50 1009.61 1009.76 1009.92 1010.11 1010.29
Thickness
5833 5833 5832 5830 5825 5820 5816 5812 5809 5807 5804 5800 5797 5794 5793 5794 5795 5795 5794 5792 5790 5789 5787 5785 5783 5782 5779 5777 5776 5774 5771 5770 5770 5766 5763 5765 5767 5767 5766 5765 5763 5762 5761
5831 5830 5829 5827 5823 5819 5815 5811 5808 5806 5804 5801 5798 5796 5795 5794 5794 5793 5792 5791 5789 5788 5787 5784 5782 5781 5778 5776 5775 5773 5769 5769 5770 5763 5757 5754 5756 5761 5764 5763 5762 5761 5759
5829 5826 5824 5824 5822 5818 5814 5812 5808 5806 5803 5802 5799 5797 5794 5792 5790 5789 5789 5789 5789 5787 5785 5783 5781 5780 5778 5775 5774 5772 5769 5765 5767 5767 5759 5751 5746 5751 5757 5760 5759 5758 5757
5835 5830 5827 5823 5822 5820 5818 5813 5809 5805 5803 5801 5797 5793 5789 5786 5787 5788 5788 5788 5788 5786 5785 5783 5781 5778 5777 5774 5773 5772 5770 5767 5763 5764 5764 5760 5756 5748 5745 5751 5754 5755 5753
5838 5833 5830 5826 5825 5823 5819 5814 5809 5805 5802 5800 5797 5793 5790 5789 5789 5788 5786 5785 5785 5784 5783 5781 5780 5777 5775 5773 5772 5770 5768 5766 5763 5760 5759 5757 5756 5753 5745 5740 5744 5747 5749
5839 5835 5832 5829 5825 5824 5820 5815 5808 5803 5802 5799 5796 5793 5789 5787 5785 5784 5783 5783 5783 5782 5781 5780 5777 5775 5773 5772 5770 5768 5766 5764 5762 5760 5758 5755 5752 5749 5746 5741 5740 5740 5744
5839 5834 5828 5824 5822 5821 5818 5814 5807 5802 5800 5798 5795 5793 5790 5787 5785 5783 5782 5781 5779 5778 5778 5778 5775 5773 5772 5770 5768 5765 5764 5762 5760 5757 5756 5755 5754 5752 5748 5743 5740 5739 5741
5837 5833 5828 5824 5821 5819 5817 5813 5807 5802 5800 5797 5794 5792 5789 5787 5785 5783 5782 5781 5779 5778 5778 5776 5774 5772 5770 5769 5766 5764 5762 5760 5758 5756 5755 5753 5753 5752 5749 5744 5739 5734 5734
5835 5832 5829 5825 5821 5818 5816 5812 5807 5802 5799 5796 5793 5790 5788 5786 5784 5783 5782 5780 5778 5778 5776 5774 5772 5770 5768 5766 5764 5761 5759 5758 5755 5754 5753 5751 5750 5749 5748 5746 5742 5734 5727
5831 5831 5828 5824 5822 5819 5815 5812 5806 5802 5798 5795 5791 5789 5786 5784 5783 5781 5778 5777 5775 5775 5772 5771 5769 5767 5766 5764 5762 5759 5758 5755 5753 5751 5749 5747 5747 5746 5745 5744 5742 5739 5732
5826 5825 5823 5821 5820 5817 5814 5809 5802 5798 5795 5792 5788 5787 5784 5782 5780 5778 5776 5774 5772 5770 5768 5766 5765 5763 5762 5760 5758 5756 5755 5752 5750 5748 5746 5744 5743 5741 5741 5740 5739 5736 5733
5825 5822 5819 5816 5815 5812 5810 5805 5800 5796 5792 5789 5785 5783 5781 5779 5776 5773 5772 5770 5768 5767 5765 5762 5760 5759 5758 5756 5754 5752 5751 5748 5746 5745 5743 5741 5741 5738 5737 5735 5734 5733 5732
5820 5818 5814 5810 5807 5805 5803 5801 5797 5793 5790 5786 5782 5779 5776 5773 5771 5769 5768 5766 5764 5762 5761 5758 5756 5754 5753 5752 5750 5749 5747 5745 5743 5742 5739 5738 5736 5733 5732 5731 5730 5729 5729
5813 5810 5807 5804 5801 5799 5797 5795 5793 5790 5787 5782 5778 5773 5771 5769 5767 5765 5763 5761 5760 5758 5756 5755 5753 5751 5749 5748 5746 5744 5742 5741 5739 5738 5736 5735 5732 5730 5728 5727 5725 5725 5723
5804 5802 5800 5796 5793 5793 5791 5789 5786 5784 5781 5776 5772 5769 5768 5766 5763 5760 5758 5756 5755 5754 5752 5750 5749 5747 5745 5744 5741 5738 5738 5735 5734 5733 5732 5731 5729 5727 5724 5722 5720 5719 5717
5797 5797 5795 5792 5789 5786 5784 5782 5780 5778 5775 5771 5768 5765 5763 5760 5757 5755 5753 5750 5749 5748 5747 5744 5743 5741 5741 5739 5736 5733 5732 5731 5729 5727 5727 5726 5724 5722 5720 5717 5716 5714 5712
5793 5792 5790 5787 5785 5783 5780 5776 5775 5773 5769 5765 5762 5760 5758 5755 5752 5750 5747 5744 5742 5741 5739 5738 5737 5735 5733 5732 5730 5728 5726 5726 5724 5723 5721 5722 5722 5718 5715 5713 5711 5710 5709
5787 5786 5785 5782 5781 5779 5776 5773 5770 5767 5763 5759 5756 5754 5751 5748 5746 5743 5740 5738 5737 5735 5733 5732 5731 5730 5728 5725 5723 5722 5721 5720 5720 5719 5717 5715 5714 5713 5710 5709 5707 5706 5705
5784 5782 5781 5778 5775 5772 5770 5766 5762 5759 5756 5753 5750 5748 5745 5742 5739 5736 5734 5733 5730 5729 5728 5727 5726 5724 5723 5720 5717 5715 5714 5714 5714 5714 5713 5711 5709 5707 5705 5703 5701 5699 5699
5777 5775 5773 5770 5766 5764 5762 5758 5754 5751 5748 5746 5745 5742 5739 5736 5733 5731 5729 5727 5725 5723 5723 5721 5720 5719 5717 5715 5712 5709 5709 5707 5707 5707 5707 5705 5703 5700 5698 5696 5694 5691 5691
5767 5765 5762 5758 5756 5755 5752 5747 5745 5743 5742 5741 5739 5736 5733 5730 5728 5726 5724 5721 5719 5717 5716 5714 5714 5713 5712 5709 5705 5702 5701 5701 5700 5700 5700 5699 5696 5692 5690 5688 5687 5686 5685
5756 5754 5750 5747 5747 5745 5742 5738 5736 5737 5736 5734 5731 5728 5726 5724 5723 5719 5716 5714 5712 5709 5708 5706 5705 5707 5706 5704 5699 5696 5694 5693 5693 5693 5693 5691 5688 5685 5682 5681 5681 5680 5678
5746 5745 5741 5738 5737 5736 5733 5729 5728 5728 5726 5724 5721 5720 5718 5717 5715 5712 5709 5707 5705 5702 5701 5699 5698 5699 5699 5697 5693 5689 5687 5685 5684 5685 5684 5682 5680 5678 5676 5674 5673 5672 5671
5736 5735 5732 5728 5726 5725 5724 5722 5721 5719 5716 5714 5712 5711 5709 5708 5707 5704 5703 5700 5698 5695 5693 5692 5691 5691 5690 5688 5685 5681 5679 5676 5675 5675 5675 5673 5672 5670 5669 5668 5665 5664 5665
5727 5725 5721 5719 5717 5716 5715 5714 5713 5711 5707 5704 5702 5701 5701 5699 5697 5696 5694 5693 5691 5689 5685 5685 5684 5682 5680 5678 5675 5673 5671 5669 5667 5665 5665 5665 5664 5662 5662 5662 5661 5659 5658
5717 5715 5713 5711 5709 5708 5707 5706 5705 5702 5698 5695 5693 5693 5692 5690 5688 5687 5685 5684 5683 5681 5680 5678 5676 5675 5672 5670 5667 5664 5662 5660 5658 5655 5658 5659 5659 5657 5657 5655 5654 5653 5651